User: anonymous   Login
Location: Hormuz
(27.0871°N, 56.4580°E)
Time: 17:45:20
(UTC+04:30)
Language:

Envisat - Orbit

View from above orbital plane
View from above orbital plane
View from above satellite
View from above satellite

Ground track
Ground track

The orbit data is extracted from the following two-line orbital elements,

1 27386U 02009A   21207.96732125  .00000034  00000-0  24820-4 0  9991
2 27386  98.1500 200.0097 0001387  89.3317 324.6731 14.38035025 16755
Epoch (UTC): 26 July 2021 23:12:56
Eccentricity: 0.0001387
inclination: 98.1500°
perigee height: 764 km
apogee height: 766 km
right ascension of ascending node: 200.0097°
argument of perigee: 89.3317°
revolutions per day: 14.38035025
mean anomaly at epoch: 324.6731°
orbit number at epoch: 1675

The dashed part of the orbit path shows where the satellite is in the earth's shadow,  

DLR